CW8668 Weather Reports


time (UTC)temp
C
wind
direction
speed
KPH
gust
KPH
rain 1hr
cm
rain 24hr
cm
rain mn
cm
humidity
%
barometer
mb
20260504081517 12 0.0 4.8 0.00 0.18 0.18 92 1009.8
20260504050016 10 0.0 3.2 0.00 0.05 0.03 92 1009.7
20260504044536 10 45 1.6 4.8 0.00 0.08 0.03 92 1009.5
20260504043016 10 0.0 3.2 0.00 0.08 0.03 92 1009.5
20260504041516 10 0.0 1.6 0.00 0.10 0.03 92 1009.7
20260504040016 10 0.0 1.6 0.00 0.10 0.03 91 1009.4
20260504034516 10 0.0 3.2 0.00 0.10 0.03 91 1009.5
20260504033036 10 0.0 3.2 0.00 0.15 0.03 91 1009.5
20260504031536 10 0.0 1.6 0.03 0.15 0.03 91 1009.4
20260504030036 10 0.0 1.6 0.03 0.18 0.03 91 1009.2
20260504024516 10 0.0 1.6 0.03 0.20 0.03 90 1009.5
20260504023016 10 0.0 1.6 0.03 0.20 0.03 90 1009.4
20260504021536 11 0.0 0.0 0.00 0.18 0.00 90 1009.2
20260504020016 11 0.0 0.0 0.00 0.18 0.00 90 1009.4
20260504014516 11 0.0 0.0 0.00 0.18 0.00 90 1009.5
20260504013036 11 0.0 0.0 0.00 0.18 0.00 90 1009.7
20260504011516 11 0.0 1.6 0.00 0.18 0.00 89 1009.9
20260504010056 11 0.0 1.6 0.00 0.18 0.00 89 1009.9
20260504004516 11 0.0 3.2 0.00 0.18 0.00 89 1009.7
20260504003036 11 0.0 0.0 0.00 0.18 0.00 89 1009.9
20260504001516 11 0.0 0.0 0.00 0.18 0.00 89 1009.8
20260504000016 11 0.0 1.6 0.00 0.18 0.18 89 1010.3
20260503234537 11 0.0 1.6 0.00 0.25 0.18 88 1010.4
20260503233016 11 0.0 3.2 0.00 0.25 0.18 88 1010.5
20260503231516 11 0.0 3.2 0.00 0.28 0.18 87 1010.6
20260503230016 11 0.0 0.0 0.00 0.28 0.18 87 1010.5
20260503224516 11 0.0 3.2 0.00 0.28 0.18 87 1010.6
20260503223016 11 45 1.6 3.2 0.00 0.28 0.18 86 1010.7
20260503221516 11 45 1.6 3.2 0.00 0.28 0.18 86 1010.8
20260503220036 11 0.0 3.2 0.00 0.28 0.18 85 1011.4
20260503214516 11 45 3.2 9.7 0.00 0.28 0.18 85 1011.3
20260503213016 11 45 6.4 11.3 0.00 0.28 0.18 85 1011.2
20260503211516 11 45 4.8 11.3 0.00 0.28 0.18 84 1011.3
20260503210036 11 45 1.6 8.0 0.00 0.28 0.18 83 1011.7
20260503204516 11 45 4.8 8.0 0.00 0.28 0.18 81 1011.8
20260503203016 11 45 4.8 9.7 0.00 0.28 0.18 78 1011.7
20260503201516 12 23 6.4 11.3 0.00 0.28 0.18 75 1011.5
20260503200016 12 203 1.6 4.8 0.00 0.28 0.18 72 1011.5
20260503194536 12 203 1.6 8.0 0.00 0.28 0.18 70 1011.2
20260503193016 13 68 3.2 12.9 0.00 0.28 0.18 69 1010.9
20260503191516 13 45 3.2 12.9 0.00 0.28 0.18 69 1010.8
20260503190016 13 68 4.8 9.7 0.00 0.28 0.18 69 1010.7
20260503184516 13 68 6.4 12.9 0.00 0.28 0.18 69 1010.7
20260503183016 13 113 4.8 12.9 0.00 0.28 0.18 71 1010.5
20260503181515 13 158 1.6 12.9 0.00 0.28 0.18 73 1010.5
20260503180016 13 225 1.6 4.8 0.00 0.28 0.18 73 1010.6
20260503174516 14 203 1.6 4.8 0.00 0.28 0.18 72 1010.6
20260503173015 14 270 1.6 3.2 0.00 0.28 0.18 71 1010.6
20260503171536 14 0.0 3.2 0.00 0.28 0.18 70 1010.6